Temperature
5 5 5 5 4 4 3 2 1 1 1 1 1 1 0 -2 -4 -5 -5 -6 -8 -9 -9 -10 -10 -10 -10 -10 -10 -10 -10 -10 -10 -9 -9 -8 -8 -7 -6 -6 -5 -5 -4 -4
4 4 4 3 3 3 3 2 2 1 0 2 2 1 -1 -3 -5 -6 -6 -7 -8 -9 -10 -11 -11 -11 -11 -11 -11 -10 -10 -10 -10 -10 -9 -9 -9 -8 -7 -7 -6 -6 -5 -5
3 3 3 2 2 2 2 2 1 -0 1 1 0 -1 -2 -5 -6 -7 -7 -8 -9 -10 -11 -11 -12 -12 -12 -12 -11 -11 -11 -11 -11 -11 -10 -10 -10 -9 -8 -8 -7 -7 -7 -6
1 3 4 3 3 3 2 2 2 1 0 0 -1 -2 -4 -6 -6 -7 -8 -9 -10 -10 -11 -12 -12 -12 -12 -12 -12 -11 -11 -11 -11 -11 -11 -10 -10 -10 -9 -9 -8 -8 -8 -8
1 1 2 2 2 2 1 0 1 0 0 -1 -3 -3 -4 -5 -6 -8 -9 -9 -10 -11 -11 -12 -12 -12 -12 -12 -12 -12 -12 -12 -12 -12 -12 -11 -11 -11 -10 -10 -9 -9 -9 -9
-2 0 1 2 3 3 1 -1 1 0 -1 -3 -4 -3 -4 -6 -8 -8 -9 -10 -10 -11 -11 -12 -12 -13 -13 -13 -13 -13 -13 -13 -13 -13 -13 -13 -12 -12 -11 -11 -10 -10 -10 -10
-2 -0 0 2 3 2 -0 0 2 1 -2 -4 -5 -5 -6 -7 -8 -9 -10 -10 -10 -11 -12 -13 -13 -13 -14 -14 -14 -14 -14 -14 -14 -13 -13 -13 -13 -13 -12 -11 -11 -11 -11 -10
-0 -0 -0 3 2 -0 1 2 1 -0 -3 -4 -5 -6 -7 -8 -8 -9 -10 -10 -10 -11 -12 -13 -14 -14 -14 -15 -15 -15 -14 -14 -14 -14 -15 -14 -14 -13 -13 -12 -12 -12 -12 -11
1 1 2 3 2 2 2 1 0 -1 -3 -4 -6 -7 -8 -8 -9 -10 -10 -11 -11 -12 -12 -13 -14 -14 -15 -15 -15 -15 -15 -15 -15 -15 -15 -15 -15 -14 -14 -13 -13 -13 -13 -13
1 1 2 3 2 2 2 1 -1 -2 -4 -5 -7 -8 -8 -9 -9 -10 -11 -11 -12 -12 -13 -14 -14 -14 -15 -15 -15 -15 -15 -15 -15 -15 -15 -15 -15 -15 -15 -14 -14 -13 -13 -13
-0 1 2 3 2 1 1 -1 -2 -3 -5 -6 -7 -8 -9 -9 -10 -11 -11 -12 -12 -13 -13 -14 -14 -15 -15 -15 -15 -15 -15 -15 -15 -15 -15 -15 -15 -16 -15 -15 -14 -14 -14 -14
0 1 2 2 1 1 -1 -2 -3 -4 -6 -7 -8 -9 -9 -10 -10 -11 -11 -12 -12 -13 -14 -14 -14 -15 -15 -15 -15 -15 -15 -15 -16 -16 -16 -16 -16 -15 -15 -15 -15 -15 -14 -14
2 2 1 1 0 -0 -2 -4 -4 -5 -6 -8 -9 -9 -9 -10 -10 -11 -11 -12 -12 -13 -13 -14 -14 -14 -15 -15 -15 -15 -15 -15 -15 -16 -16 -16 -16 -16 -16 -15 -15 -16 -15 -15
1 1 1 0 -1 -2 -3 -4 -5 -6 -7 -8 -9 -9 -9 -10 -10 -11 -11 -12 -12 -13 -13 -13 -14 -14 -14 -15 -15 -15 -15 -15 -15 -15 -15 -15 -16 -15 -15 -15 -15 -15 -15 -15
1 1 0 -1 -2 -3 -5 -6 -6 -7 -8 -8 -9 -9 -9 -10 -10 -11 -11 -11 -11 -12 -12 -13 -13 -13 -14 -15 -15 -15 -15 -15 -15 -15 -15 -15 -15 -15 -15 -15 -15 -15 -15 -14
1 0 -1 -2 -3 -5 -6 -6 -7 -8 -8 -8 -9 -9 -10 -10 -11 -11 -11 -11 -12 -12 -12 -13 -13 -13 -14 -14 -14 -14 -14 -14 -14 -15 -14 -14 -14 -14 -15 -15 -15 -15 -15 -15
1 0 -1 -3 -4 -5 -6 -7 -7 -8 -8 -9 -9 -9 -10 -10 -10 -10 -10 -10 -11 -12 -12 -12 -13 -13 -14 -14 -14 -14 -13 -13 -14 -14 -14 -15 -15 -15 -15 -15 -15 -15 -15 -15
0 -0 -2 -3 -4 -5 -6 -7 -7 -8 -8 -9 -9 -10 -9 -9 -9 -10 -10 -10 -10 -10 -11 -12 -12 -13 -14 -13 -13 -13 -14 -14 -14 -14 -15 -15 -16 -16 -16 -16 -16 -15 -15 -15
-1 -2 -3 -4 -5 -6 -7 -7 -8 -8 -9 -9 -9 -9 -9 -9 -9 -10 -10 -10 -10 -10 -10 -10 -11 -13 -12 -12 -12 -13 -13 -13 -14 -14 -14 -15 -15 -15 -16 -16 -16 -16 -16 -15
-1 -3 -4 -4 -5 -6 -7 -7 -8 -8 -9 -9 -9 -9 -9 -9 -9 -9 -10 -10 -10 -10 -10 -10 -11 -11 -12 -12 -12 -12 -12 -12 -12 -13 -13 -14 -14 -15 -15 -15 -16 -16 -16 -16
-2 -3 -4 -5 -6 -7 -7 -7 -8 -8 -8 -9 -9 -8 -8 -9 -9 -10 -9 -9 -9 -9 -9 -10 -10 -11 -12 -12 -11 -10 -10 -11 -12 -12 -12 -13 -13 -13 -14 -14 -15 -15 -15 -16
-3 -4 -5 -6 -6 -7 -7 -8 -8 -8 -8 -9 -9 -8 -9 -8 -8 -9 -9 -9 -9 -9 -10 -10 -9 -11 -12 -10 -10 -10 -10 -11 -12 -12 -13 -13 -13 -13 -13 -13 -14 -15 -15 -15
-4 -4 -5 -6 -7 -7 -7 -8 -8 -8 -8 -9 -8 -8 -9 -9 -9 -9 -8 -9 -9 -9 -9 -9 -9 -10 -10 -10 -9 -10 -11 -11 -12 -12 -13 -13 -13 -13 -13 -13 -13 -14 -15 -15
-4 -5 -6 -6 -6 -7 -8 -8 -8 -8 -8 -9 -8 -8 -8 -8 -9 -9 -9 -9 -8 -8 -9 -9 -9 -9 -10 -9 -10 -10 -10 -11 -12 -13 -13 -12 -11 -12 -13 -13 -13 -14 -15 -15
-4 -5 -6 -6 -6 -7 -8 -8 -8 -8 -8 -9 -8 -8 -9 -9 -9 -8 -8 -8 -8 -8 -8 -8 -8 -9 -9 -10 -9 -9 -10 -11 -12 -13 -12 -11 -11 -11 -12 -12 -13 -14 -15 -15
-4 -5 -6 -6 -7 -7 -8 -8 -8 -8 -8 -8 -8 -9 -9 -9 -8 -8 -8 -8 -8 -8 -8 -8 -8 -9 -9 -9 -9 -9 -9 -10 -11 -12 -12 -11 -11 -11 -11 -11 -12 -13 -13 -14
-5 -6 -6 -6 -6 -7 -8 -8 -8 -8 -8 -8 -8 -8 -8 -8 -8 -8 -8 -7 -8 -8 -8 -8 -8 -9 -9 -9 -9 -9 -9 -9 -10 -11 -11 -11 -11 -12 -12 -12 -12 -12 -12 -12
Wind_Speed
5 3 1 3 3 4 5 2 2 8 8 9 10 10 11 8 8 11 15 16 17 17 18 17 17 18 18 17 16 17 17 16 15 15 16 16 16 17 18 17 16 17 18 16
5 4 5 4 4 5 3 2 5 7 7 8 9 8 11 8 10 14 15 17 17 16 17 17 17 18 18 16 16 17 16 16 16 15 15 16 16 16 17 16 14 13 15 16
4 5 2 1 1 2 2 5 4 4 8 10 12 15 14 10 13 14 15 15 13 13 14 14 15 16 15 16 16 16 15 16 16 16 16 16 16 16 16 16 14 9 11 13
3 5 2 2 3 4 4 6 2 7 10 9 9 12 4 7 11 12 12 10 10 10 12 12 12 14 14 14 15 15 15 16 16 15 15 15 16 15 15 14 14 10 8 10
2 1 4 3 4 4 5 5 3 7 10 10 10 9 0 7 9 9 8 7 7 8 10 11 11 13 12 13 14 15 15 16 16 15 15 15 15 15 14 12 12 12 9 8
2 1 5 4 5 4 1 4 5 5 7 8 11 12 7 7 8 9 7 9 9 9 10 10 12 12 11 13 15 16 16 16 15 14 14 12 14 13 13 13 12 12 9 9
3 4 7 5 5 2 1 5 6 3 4 4 4 8 9 7 7 8 7 9 10 9 7 8 11 12 12 13 15 16 16 16 15 15 13 11 12 12 11 11 12 11 10 11
3 4 6 3 1 1 5 6 6 3 3 5 7 7 7 8 9 8 9 10 10 9 9 8 11 12 12 13 15 15 16 16 15 15 13 12 12 12 11 10 11 10 8 8
6 7 4 2 4 5 5 4 2 1 4 5 5 6 8 9 8 7 9 9 9 9 9 8 10 12 12 13 14 15 15 14 14 14 13 12 12 12 11 10 10 8 8 8
3 4 4 3 2 3 1 2 2 1 2 0 3 4 6 9 9 8 9 9 10 10 11 10 11 11 11 12 14 13 13 13 13 12 13 11 11 11 11 11 10 10 10 9
4 6 5 2 3 1 4 4 1 0 3 2 1 3 4 6 7 8 9 10 10 10 10 11 11 11 12 12 12 12 12 11 11 10 9 9 9 10 10 11 13 12 9 9
5 4 2 3 3 2 3 2 2 3 3 5 5 2 4 5 6 7 8 9 10 10 10 11 11 12 12 11 11 11 11 11 11 9 8 8 8 9 13 17 20 20 19 15
2 4 3 1 3 4 4 4 3 4 5 4 3 3 4 5 6 8 9 10 10 11 12 12 12 12 12 12 12 11 10 11 11 10 7 8 9 8 9 12 17 19 19 18
3 3 1 2 3 5 5 4 6 7 6 4 4 4 4 4 6 7 8 9 10 11 11 12 12 12 13 12 13 12 11 14 12 9 7 7 8 8 8 8 8 10 14 16
4 4 4 5 6 5 4 5 6 4 3 4 4 4 5 5 6 8 8 9 11 11 11 12 13 14 13 13 14 14 13 11 11 9 8 9 8 8 8 7 6 6 8 11
4 5 6 5 6 5 4 4 4 3 3 3 4 5 5 5 6 7 8 8 9 11 12 12 13 14 15 15 15 13 13 19 18 13 10 10 9 8 8 7 7 6 6 6
3 1 2 3 5 4 5 5 5 4 3 3 4 6 6 6 7 8 9 9 9 11 12 12 13 16 16 15 15 13 13 16 22 16 11 11 11 10 9 8 8 8 7 9
4 4 4 5 6 7 6 5 5 5 3 2 3 5 6 7 9 11 12 12 12 12 10 11 14 17 15 16 15 14 14 15 16 13 12 12 12 11 10 10 9 10 9 10
7 7 6 6 6 8 7 6 5 4 3 3 4 5 6 7 8 10 11 11 12 12 13 15 22 19 17 22 23 15 15 15 14 14 13 15 15 12 11 11 11 10 9 8
8 8 8 7 7 7 7 6 6 4 2 2 3 5 6 8 9 10 11 10 9 9 15 18 18 15 17 21 23 14 13 14 15 14 14 14 13 12 11 12 12 10 9 8
8 8 9 8 7 6 6 7 6 4 2 2 3 4 7 8 9 9 10 11 11 15 19 21 16 15 16 19 20 14 14 15 15 15 15 15 15 14 12 11 10 10 9 9
8 8 8 8 8 6 5 5 5 4 2 1 3 4 7 8 9 9 9 8 12 20 17 12 13 21 26 24 15 15 16 16 16 15 15 15 14 14 12 10 8 7 7 7
8 8 9 8 8 8 5 4 4 3 1 2 4 5 6 7 7 8 11 12 13 20 16 13 21 29 29 19 14 15 15 16 16 16 16 16 16 15 14 11 5 3 3 4
8 8 8 7 9 8 5 4 3 2 2 5 5 5 5 6 7 5 8 17 22 22 16 18 26 29 25 15 14 15 15 15 15 15 15 15 15 14 14 13 8 4 3 2
8 8 8 9 8 6 6 5 2 2 2 4 4 4 4 4 5 9 11 13 19 18 14 18 26 25 18 14 15 15 15 15 16 15 13 13 13 13 13 12 9 7 5 4
8 8 7 7 6 6 5 5 3 2 1 2 3 4 4 4 5 6 8 10 12 15 13 11 13 15 14 15 16 16 15 16 16 14 13 12 11 10 10 10 9 7 6 5
7 7 6 5 4 5 5 5 4 3 2 1 2 4 5 6 7 9 10 10 11 11 11 10 12 12 12 14 15 15 15 16 17 15 10 9 8 7 8 8 7 6 4 4
Wind_Direction
285 328 317 310 9 43 79 55 242 278 292 302 315 311 312 334 343 345 350 353 353 351 348 346 348 346 343 338 340 339 338 336 334 337 336 334 337 339 339 343 348 352 3 14
315 11 16 71 44 62 76 318 283 296 291 283 291 305 322 347 348 350 349 348 350 348 345 347 349 343 340 339 341 342 341 338 337 338 339 339 338 337 341 341 346 357 7 9
280 332 49 97 50 65 315 275 273 287 284 301 320 327 331 353 351 348 341 346 347 346 343 343 345 339 337 340 342 343 341 339 338 339 339 340 342 343 343 344 341 359 13 10
285 343 293 223 210 193 258 275 265 291 286 293 298 304 354 11 351 342 340 346 342 341 338 338 339 337 337 341 342 342 341 342 341 340 340 341 343 343 343 345 348 356 14 17
3 276 277 240 253 268 284 278 228 275 299 313 318 302 353 11 354 337 345 346 338 340 336 336 336 333 336 342 344 344 343 342 339 340 341 346 347 344 346 347 349 350 8 10
104 296 264 232 253 263 241 268 247 268 302 316 331 335 341 3 353 343 0 355 348 343 341 341 338 335 336 343 346 345 342 339 338 340 338 345 346 343 345 350 350 355 9 9
182 238 262 246 269 310 61 285 292 271 278 298 305 299 317 347 347 348 4 351 349 336 330 330 334 337 339 342 345 340 338 338 340 342 341 350 345 341 341 347 350 354 8 8
176 246 273 233 326 195 242 271 279 289 271 267 283 304 324 338 341 349 349 346 345 337 331 331 338 340 340 342 339 338 337 339 342 341 347 352 345 343 343 348 346 342 353 3
204 225 234 247 210 230 233 271 348 271 268 285 311 323 335 340 343 349 340 341 339 335 330 334 338 340 337 337 338 337 338 339 341 343 353 349 346 345 350 353 349 348 351 353
263 249 233 221 245 284 8 95 130 224 250 88 290 323 347 345 344 343 339 342 339 335 336 336 336 336 332 333 336 336 336 336 338 350 355 346 347 347 351 351 351 354 351 343
257 284 310 292 325 346 118 106 105 103 138 149 53 10 348 339 343 335 335 338 336 334 333 330 330 329 328 329 331 333 335 335 336 351 344 337 341 345 350 348 351 351 342 338
227 217 187 266 296 104 122 141 168 162 125 81 76 21 341 340 332 330 338 335 335 332 330 327 325 324 322 324 326 325 332 332 334 343 334 335 330 333 343 350 351 351 344 339
191 192 174 145 103 99 125 155 153 117 106 97 72 36 360 333 333 348 342 335 330 326 324 321 319 318 317 318 322 319 321 322 329 330 323 325 325 326 327 333 340 344 347 346
73 90 90 52 97 93 107 105 96 94 90 79 57 32 354 329 329 338 329 325 322 320 316 317 316 313 314 317 319 314 309 317 317 307 303 307 312 313 311 314 318 321 333 343
93 94 137 124 110 96 98 102 98 85 68 53 28 8 351 338 330 322 315 321 324 319 315 316 316 314 315 315 314 311 307 304 299 296 289 298 301 296 295 290 289 293 311 327
110 115 129 132 142 133 116 104 118 112 73 31 2 349 337 323 313 308 309 322 323 315 311 311 309 313 315 311 310 306 301 300 301 292 289 291 282 275 275 275 276 273 276 285
104 103 140 149 147 125 116 122 128 123 95 30 350 339 338 331 324 323 323 318 305 296 297 301 304 311 310 307 305 298 294 296 299 292 289 291 287 280 275 269 265 266 266 271
133 138 143 146 147 140 133 123 112 102 80 22 12 352 342 343 335 322 318 319 316 311 304 304 309 311 313 310 304 299 297 296 298 292 292 290 285 277 268 266 266 270 273 276
132 130 117 106 116 126 130 129 122 117 91 58 24 342 327 328 319 311 314 318 317 317 318 316 317 323 313 310 312 310 307 306 307 305 300 298 294 284 273 264 258 256 263 270
123 120 114 108 110 123 127 134 133 116 92 64 17 341 341 334 324 319 317 307 294 296 307 315 324 323 314 313 320 329 323 318 315 311 307 304 298 290 277 271 267 257 249 249
137 129 126 125 123 122 128 144 142 131 115 69 19 337 326 321 322 321 320 320 318 323 327 329 331 321 320 332 340 334 327 324 320 316 313 309 303 295 285 272 260 254 252 247
140 139 138 137 134 127 134 148 145 140 122 25 334 331 327 328 327 319 300 290 312 328 332 331 328 333 344 345 339 333 331 329 327 324 323 319 315 310 300 285 263 250 245 233
142 142 145 152 150 142 141 146 151 152 159 283 306 328 321 317 318 322 324 322 326 330 337 334 337 344 348 347 336 334 333 333 332 330 331 337 344 349 346 333 304 239 227 215
137 140 145 144 133 140 163 198 205 201 239 276 285 293 304 323 323 299 297 317 332 336 338 338 344 349 350 343 336 337 339 337 336 338 344 356 2 2 3 3 25 56 46 43
135 136 146 152 156 175 186 191 205 275 286 286 295 305 305 299 301 310 319 323 333 338 336 339 345 346 345 340 341 341 340 339 341 348 359 7 7 7 10 13 27 45 40 31
148 158 168 169 167 167 171 173 170 195 233 311 327 335 329 315 312 321 324 330 335 338 338 334 339 342 342 342 344 343 342 341 343 352 3 8 9 8 10 11 12 21 26 26
145 156 152 154 164 169 176 180 174 194 200 244 314 329 332 328 335 342 339 338 338 337 337 336 339 344 345 344 344 344 345 345 350 354 359 5 9 5 5 5 3 1 0 7
Height
1596 1597 1597 1595 1596 1595 1599 1603 1606 1601 1599 1592 1586 1581 1576 1571 1566 1561 1556 1551 1545 1539 1532 1526 1519 1512 1506 1499 1493 1487 1481 1474 1468 1461 1455 1448 1442 1436 1429 1424 1418 1411 1402 1397
1600 1597 1597 1599 1599 1598 1600 1600 1597 1597 1597 1588 1582 1578 1573 1568 1564 1559 1554 1550 1545 1539 1532 1525 1519 1513 1506 1499 1492 1485 1479 1473 1467 1460 1453 1446 1440 1435 1430 1425 1421 1415 1409 1403
1604 1600 1599 1604 1602 1601 1601 1599 1598 1599 1593 1584 1579 1574 1569 1565 1563 1558 1553 1549 1543 1538 1532 1525 1519 1513 1506 1499 1492 1485 1479 1473 1466 1460 1453 1447 1441 1435 1430 1426 1422 1417 1412 1409
1609 1601 1598 1604 1599 1598 1597 1595 1593 1591 1587 1582 1580 1574 1568 1563 1560 1556 1551 1547 1542 1537 1531 1525 1518 1512 1505 1499 1492 1485 1478 1471 1465 1459 1454 1448 1442 1437 1431 1426 1422 1419 1415 1412
1610 1610 1603 1600 1596 1597 1597 1593 1591 1589 1583 1580 1575 1570 1566 1563 1559 1555 1550 1546 1541 1536 1530 1523 1516 1510 1504 1497 1490 1483 1476 1470 1464 1459 1453 1448 1443 1437 1433 1428 1424 1420 1417 1414
1618 1613 1605 1597 1592 1590 1593 1595 1588 1586 1582 1578 1571 1567 1564 1561 1557 1552 1547 1543 1538 1533 1527 1521 1515 1509 1502 1495 1488 1481 1475 1469 1463 1458 1453 1448 1443 1439 1434 1430 1427 1422 1419 1416
1616 1611 1599 1592 1590 1592 1597 1595 1585 1582 1580 1576 1572 1569 1563 1557 1553 1549 1545 1540 1535 1530 1525 1520 1513 1507 1501 1495 1488 1482 1475 1469 1463 1458 1453 1448 1443 1439 1435 1431 1427 1424 1421 1418
1608 1607 1605 1589 1589 1593 1592 1583 1581 1579 1576 1572 1568 1562 1558 1554 1550 1547 1542 1536 1532 1527 1522 1517 1512 1505 1500 1494 1488 1482 1475 1469 1463 1458 1453 1448 1443 1439 1435 1432 1428 1425 1422 1419
1594 1594 1587 1586 1586 1585 1583 1580 1578 1575 1572 1568 1564 1560 1556 1553 1548 1545 1541 1535 1530 1525 1520 1515 1510 1504 1499 1494 1488 1482 1475 1469 1464 1459 1454 1449 1444 1439 1436 1432 1429 1426 1423 1420
1587 1585 1584 1584 1584 1583 1579 1577 1574 1572 1570 1565 1562 1559 1555 1552 1547 1543 1539 1534 1529 1523 1517 1512 1508 1503 1499 1494 1488 1482 1476 1470 1465 1460 1456 1451 1446 1442 1438 1434 1431 1428 1425 1421
1586 1582 1580 1580 1581 1579 1576 1574 1571 1568 1565 1563 1560 1556 1553 1549 1545 1541 1537 1532 1527 1521 1516 1511 1506 1502 1497 1492 1487 1481 1476 1471 1466 1462 1457 1452 1448 1445 1441 1438 1434 1430 1426 1422
1582 1579 1579 1579 1577 1575 1573 1571 1568 1565 1562 1559 1557 1555 1552 1547 1543 1539 1534 1529 1524 1520 1515 1510 1505 1501 1496 1491 1486 1481 1475 1470 1466 1461 1456 1451 1447 1444 1441 1438 1434 1430 1426 1423
1576 1576 1576 1575 1573 1571 1569 1567 1564 1562 1560 1558 1556 1553 1551 1547 1542 1537 1533 1527 1522 1518 1513 1508 1503 1499 1494 1489 1485 1480 1475 1469 1464 1459 1454 1450 1445 1442 1438 1435 1432 1428 1425 1421
1574 1574 1573 1571 1569 1568 1566 1565 1562 1560 1558 1555 1552 1550 1548 1545 1540 1535 1530 1525 1521 1516 1511 1506 1501 1497 1493 1488 1483 1478 1473 1468 1463 1457 1452 1448 1443 1439 1436 1432 1429 1425 1423 1420
1570 1570 1569 1567 1566 1564 1563 1561 1559 1558 1557 1554 1551 1550 1547 1542 1538 1534 1529 1524 1520 1515 1510 1505 1499 1495 1490 1485 1480 1474 1469 1464 1459 1454 1449 1445 1440 1436 1432 1429 1426 1423 1420 1418
1567 1567 1566 1564 1562 1561 1560 1558 1557 1556 1555 1554 1551 1549 1545 1541 1538 1534 1529 1523 1518 1513 1508 1502 1497 1493 1487 1481 1475 1470 1464 1460 1454 1448 1443 1439 1434 1430 1426 1423 1421 1419 1417 1416
1564 1564 1563 1561 1559 1559 1558 1556 1556 1555 1554 1554 1552 1551 1546 1542 1538 1534 1529 1523 1519 1514 1508 1502 1496 1490 1484 1478 1472 1466 1459 1453 1447 1441 1436 1430 1425 1421 1419 1417 1415 1413 1412 1411
1559 1559 1558 1558 1557 1557 1556 1556 1556 1555 1555 1554 1552 1550 1546 1542 1538 1534 1529 1524 1519 1514 1508 1502 1494 1487 1481 1476 1469 1461 1453 1446 1439 1434 1428 1422 1418 1414 1412 1410 1408 1406 1405 1405
1555 1555 1555 1555 1555 1555 1556 1555 1555 1555 1554 1552 1550 1548 1545 1541 1538 1534 1530 1524 1517 1511 1505 1499 1491 1485 1478 1471 1464 1457 1450 1442 1435 1429 1423 1417 1412 1408 1404 1401 1399 1398 1398 1398
1551 1551 1552 1553 1554 1554 1554 1554 1554 1555 1553 1551 1549 1548 1545 1541 1537 1534 1530 1524 1518 1511 1503 1496 1490 1483 1476 1469 1463 1456 1448 1440 1432 1425 1418 1412 1407 1401 1397 1394 1393 1391 1391 1392
1549 1550 1551 1552 1553 1553 1553 1554 1554 1554 1552 1551 1549 1548 1545 1541 1538 1534 1529 1524 1518 1511 1504 1497 1490 1482 1476 1470 1463 1455 1447 1439 1431 1423 1416 1409 1401 1395 1390 1386 1385 1384 1385 1386
1548 1549 1550 1550 1551 1552 1553 1553 1554 1553 1551 1549 1547 1546 1545 1541 1538 1535 1531 1524 1517 1510 1504 1498 1490 1484 1478 1472 1463 1455 1447 1439 1431 1423 1414 1406 1399 1391 1385 1381 1379 1379 1380 1382
1546 1548 1549 1549 1550 1551 1552 1552 1552 1553 1552 1550 1547 1545 1544 1541 1538 1534 1530 1525 1518 1512 1506 1500 1493 1486 1480 1473 1464 1456 1448 1441 1432 1424 1416 1408 1400 1391 1384 1379 1378 1378 1378 1379
1544 1546 1547 1548 1549 1550 1551 1551 1550 1550 1550 1550 1549 1545 1544 1542 1539 1536 1531 1526 1521 1515 1509 1502 1496 1489 1482 1474 1465 1458 1450 1443 1435 1427 1420 1413 1404 1395 1388 1383 1380 1380 1380 1381
1542 1543 1544 1545 1547 1548 1549 1551 1551 1550 1549 1549 1549 1545 1543 1542 1539 1536 1532 1528 1523 1517 1511 1505 1498 1490 1483 1475 1468 1461 1453 1446 1439 1432 1425 1417 1410 1402 1396 1391 1387 1386 1385 1384
1539 1541 1542 1544 1546 1548 1549 1549 1550 1551 1551 1551 1549 1546 1544 1543 1540 1537 1534 1530 1525 1518 1512 1505 1498 1492 1485 1478 1472 1466 1458 1450 1443 1437 1430 1423 1417 1410 1404 1399 1395 1392 1390 1389
1536 1538 1539 1541 1543 1545 1547 1548 1549 1549 1549 1550 1549 1547 1545 1544 1541 1538 1535 1531 1526 1520 1513 1507 1501 1494 1488 1482 1476 1470 1463 1455 1448 1442 1436 1429 1422 1417 1412 1407 1403 1399 1396 1394